TimeCST,TemperatureF,Dew PointF,Humidity,Sea Level PressureIn,VisibilityMPH,Wind Direction,Wind SpeedMPH,Gust SpeedMPH,PrecipitationIn,Events,Conditions,WindDirDegrees,DateUTC
12:00 AM,1.4,-2.2,85,30.02,8.0,Calm,Calm,-,N/A,Snow,Light Snow,0,2013-02-03 06:00:00
12:26 AM,1.4,-2.2,85,30.02,8.0,SE,3.5,-,N/A,Snow,Light Snow,140,2013-02-03 06:26:00
12:32 AM,1.4,-2.2,85,30.02,8.0,SSE,4.6,-,N/A,Snow,Light Snow,160,2013-02-03 06:32:00
12:50 AM,3.2,-0.4,85,30.01,7.0,SSE,3.5,-,N/A,Snow,Light Snow,150,2013-02-03 06:50:00
12:55 AM,2.5,-1.1,85,30.01,7.0,SE,3.5,-,0.00,Snow,Light Snow,140,2013-02-03 06:55:00
12:59 AM,1.4,-2.2,85,30.01,8.0,SE,3.5,-,N/A,Snow,Light Snow,140,2013-02-03 06:59:00
1:03 AM,1.4,-2.2,85,30.01,8.0,SSE,3.5,-,N/A,,Overcast,150,2013-02-03 07:03:00
1:28 AM,5.0,1.4,85,30.00,10.0,SSE,3.5,-,N/A,,Overcast,160,2013-02-03 07:28:00
1:54 AM,3.2,-0.4,85,30.00,10.0,Calm,Calm,-,N/A,,Overcast,0,2013-02-03 07:54:00
1:55 AM,3.2,-0.2,86,30.00,10.0,Calm,Calm,-,0.00,,Overcast,0,2013-02-03 07:55:00
2:09 AM,3.2,-0.4,85,29.99,10.0,Calm,Calm,-,N/A,Snow,Light Snow,0,2013-02-03 08:09:00
2:15 AM,3.2,-0.4,85,30.00,10.0,Calm,Calm,-,N/A,Snow,Light Snow,0,2013-02-03 08:15:00
2:23 AM,3.2,-0.4,85,29.99,10.0,Calm,Calm,-,N/A,Snow,Light Snow,0,2013-02-03 08:23:00
2:27 AM,3.2,-0.4,85,29.99,10.0,Calm,Calm,-,N/A,,Overcast,0,2013-02-03 08:27:00
2:36 AM,3.2,-0.4,85,29.98,10.0,Calm,Calm,-,N/A,Snow,Light Snow,0,2013-02-03 08:36:00
2:42 AM,3.2,-0.4,85,29.98,9.0,Calm,Calm,-,N/A,Snow,Light Snow,0,2013-02-03 08:42:00
2:53 AM,3.2,-0.4,85,29.98,9.0,Calm,Calm,-,N/A,,Overcast,0,2013-02-03 08:53:00
2:55 AM,3.0,-0.4,86,29.97,9.0,Calm,Calm,-,0.00,,Overcast,0,2013-02-03 08:55:00
3:05 AM,3.2,-0.4,85,29.97,10.0,Calm,Calm,-,N/A,,Overcast,0,2013-02-03 09:05:00
3:07 AM,3.2,-0.4,85,29.97,10.0,Calm,Calm,-,N/A,,Overcast,0,2013-02-03 09:07:00
3:11 AM,3.2,-0.4,85,29.97,10.0,SSE,3.5,-,N/A,,Overcast,150,2013-02-03 09:11:00
3:16 AM,3.2,-0.4,85,29.97,10.0,Calm,Calm,-,N/A,,Overcast,0,2013-02-03 09:16:00
3:20 AM,3.2,-0.4,85,29.97,10.0,Calm,Calm,-,N/A,,Overcast,0,2013-02-03 09:20:00
3:22 AM,3.2,1.4,92,29.97,10.0,Calm,Calm,-,N/A,,Overcast,0,2013-02-03 09:22:00
3:40 AM,5.0,1.4,85,29.97,10.0,Calm,Calm,-,N/A,,Overcast,0,2013-02-03 09:40:00
3:44 AM,5.0,1.4,85,29.97,10.0,Calm,Calm,-,N/A,Snow,Light Snow,0,2013-02-03 09:44:00
3:45 AM,5.0,1.4,85,29.97,10.0,Calm,Calm,-,N/A,Snow,Light Snow,0,2013-02-03 09:45:00
3:52 AM,5.0,1.4,85,29.97,10.0,Calm,Calm,-,N/A,Snow,Light Snow,0,2013-02-03 09:52:00
3:55 AM,5.7,2.3,86,29.97,10.0,Calm,Calm,-,0.00,Snow,Light Snow,0,2013-02-03 09:55:00
3:57 AM,6.8,1.4,79,29.97,9.0,Calm,Calm,-,N/A,Snow,Light Snow,0,2013-02-03 09:57:00
4:21 AM,6.8,3.2,85,29.97,5.0,Calm,Calm,-,N/A,Snow,Light Snow,0,2013-02-03 10:21:00
4:23 AM,6.8,3.2,85,29.97,6.0,Calm,Calm,-,N/A,Snow,Light Snow,0,2013-02-03 10:23:00
4:55 AM,7.3,4.1,87,29.97,7.0,West,3.5,-,0.00,Snow,Light Snow,270,2013-02-03 10:55:00
5:12 AM,8.6,5.0,85,29.98,9.0,West,3.5,-,N/A,Snow,Light Snow,270,2013-02-03 11:12:00
5:37 AM,10.4,6.8,85,29.98,8.0,West,11.5,-,N/A,Snow,Light Snow,280,2013-02-03 11:37:00
5:55 AM,10.9,6.4,82,29.98,10.0,WNW,15.0,-,0.00,Snow,Light Snow,290,2013-02-03 11:55:00
6:55 AM,10.6,5.5,80,30.00,10.0,WNW,11.5,-,0.00,Snow,Light Snow,300,2013-02-03 12:55:00
7:05 AM,10.4,5.0,79,30.00,10.0,WNW,15.0,-,N/A,,Overcast,290,2013-02-03 13:05:00
7:55 AM,9.0,3.6,79,30.03,10.0,WNW,12.7,-,0.00,,Scattered Clouds,300,2013-02-03 13:55:00
8:46 AM,8.6,3.2,79,29.96,10.0,WNW,12.7,-,N/A,Snow,Light Snow,290,2013-02-03 14:46:00
8:55 AM,8.6,3.2,79,30.04,10.0,WNW,12.7,-,N/A,Snow,Light Snow,290,2013-02-03 14:55:00
9:05 AM,8.6,3.2,79,29.96,10.0,WNW,17.3,-,N/A,,Scattered Clouds,290,2013-02-03 15:05:00
9:55 AM,10.4,3.2,73,30.05,10.0,WNW,12.7,-,N/A,,Scattered Clouds,290,2013-02-03 15:55:00
10:55 AM,12.2,3.2,67,30.05,10.0,WNW,16.1,-,N/A,,Partly Cloudy,290,2013-02-03 16:55:00
11:55 AM,14.0,3.2,62,30.04,10.0,WNW,12.7,-,N/A,,Partly Cloudy,290,2013-02-03 17:55:00
12:55 PM,15.8,5.0,62,30.04,10.0,WNW,15.0,-,N/A,,Partly Cloudy,290,2013-02-03 18:55:00
1:55 PM,15.8,5.0,62,30.03,10.0,WNW,13.8,-,N/A,,Scattered Clouds,290,2013-02-03 19:55:00
2:55 PM,15.8,5.0,62,30.03,10.0,West,10.4,-,N/A,,Partly Cloudy,260,2013-02-03 20:55:00
3:55 PM,15.8,5.0,62,30.02,10.0,West,11.5,-,N/A,,Partly Cloudy,270,2013-02-03 21:55:00
4:55 PM,12.2,3.2,67,30.02,10.0,West,6.9,-,N/A,,Partly Cloudy,270,2013-02-03 22:55:00
5:55 PM,13.5,5.2,70,30.03,10.0,West,5.8,-,N/A,,Overcast,260,2013-02-03 23:55:00
6:55 PM,13.8,5.0,68,30.03,10.0,West,6.9,-,N/A,,Overcast,260,2013-02-04 00:55:00
7:55 PM,13.5,5.0,69,30.04,10.0,West,5.8,-,N/A,,Overcast,270,2013-02-04 01:55:00
8:53 PM,14.0,6.8,73,30.04,10.0,West,6.9,-,N/A,,Overcast,270,2013-02-04 02:53:00
8:55 PM,13.3,6.1,73,30.04,10.0,West,5.8,-,N/A,,Overcast,270,2013-02-04 02:55:00
8:59 PM,14.0,6.8,73,30.04,10.0,West,6.9,-,N/A,Snow,Light Snow,270,2013-02-04 02:59:00
9:40 PM,12.2,8.6,85,30.04,6.0,Calm,Calm,-,N/A,Snow,Light Snow,0,2013-02-04 03:40:00
9:41 PM,12.2,8.6,85,30.04,5.0,Calm,Calm,-,N/A,Snow,Light Snow,0,2013-02-04 03:41:00
9:43 PM,12.2,8.6,85,30.04,5.0,Calm,Calm,-,N/A,Snow,Light Snow,0,2013-02-04 03:43:00
9:55 PM,12.9,8.8,84,30.05,5.0,Calm,Calm,-,0.00,Snow,Light Snow,0,2013-02-04 03:55:00
10:00 PM,12.2,8.6,85,30.05,5.0,Calm,Calm,-,N/A,Snow,Light Snow,0,2013-02-04 04:00:00
10:03 PM,12.2,8.6,85,30.04,5.0,Calm,Calm,-,N/A,Snow,Light Snow,0,2013-02-04 04:03:00
10:07 PM,12.2,8.6,85,30.04,4.0,Calm,Calm,-,N/A,Snow,Light Snow,0,2013-02-04 04:07:00
10:13 PM,12.2,8.6,85,30.04,3.0,Calm,Calm,-,N/A,Snow,Light Snow,0,2013-02-04 04:13:00
10:20 PM,12.2,8.6,85,30.04,3.0,Calm,Calm,-,N/A,Snow,Light Snow,0,2013-02-04 04:20:00
10:39 PM,12.2,8.6,85,30.04,2.5,Calm,Calm,-,N/A,Snow,Light Snow,0,2013-02-04 04:39:00
10:42 PM,12.2,8.6,85,30.04,3.0,Calm,Calm,-,N/A,Snow,Light Snow,0,2013-02-04 04:42:00
10:48 PM,12.2,8.6,85,30.04,2.5,Calm,Calm,-,N/A,Snow,Light Snow,0,2013-02-04 04:48:00
10:55 PM,12.4,9.3,88,30.04,2.5,Calm,Calm,-,0.00,Snow,Light Snow,0,2013-02-04 04:55:00
11:04 PM,12.2,8.6,85,30.04,3.0,Calm,Calm,-,N/A,Snow,Light Snow,0,2013-02-04 05:04:00
11:49 PM,12.2,8.6,85,30.03,2.5,Calm,Calm,-,N/A,Snow,Light Snow,0,2013-02-04 05:49:00
11:55 PM,12.2,9.1,88,30.03,2.5,Calm,Calm,-,0.00,Snow,Light Snow,0,2013-02-04 05:55:00